Weather History for Warroad, MN

Change the Weather History Date:

Friday, March 1, 2013

  Actual Average Record
Temperature  
Mean Temperature 8 °F -  
Max Temperature 19 °F 27 °F 42 °F (1985)
Min Temperature -2 °F 6 °F -33 °F (1962)
Degree Days  
Heating Degree Days 56    
Moisture  
Dew Point 1 °F    
Average Humidity 68    
Maximum Humidity 85    
Minimum Humidity 49    
Precipitation  
Precipitation 0.00 in - - ()
Sea Level Pressure  
Sea Level Pressure 30.40 in    
Wind  
Wind Speed 8 mph (NE)    
Max Wind Speed 10 mph    
Max Gust Speed -    
Visibility 10 miles    
Events      
Averages and records for this station are not official NWS values.
T = Trace of Precipitation, MM = Missing Value Source: NWS Daily Summary

Daily Weather History Graph

Daily Weather History Graph

Search for Another Location

Airport:

Trip Planner

Search our weather history database for the weather conditions in past years. The results will help you decide how hot, cold, wet, or windy it might be!

Date:

Astronomy

Mar. 01, 2013 Rise Set
Actual Time 7:02 AM CST 6:05 PM CST
Civil Twilight 6:31 AM CST 6:37 PM CST
Nautical Twilight 5:54 AM CST 7:13 PM CST
Astronomical Twilight 5:17 AM CST 7:50 PM CST
Moon 11:08 PM CST (3/1) 8:24 AM CST (3/1)
Length of Visible Light 12h 05m
Length of Day
11h 02m
Waning Gibbous, 83% of the Moon is Illuminated
Mar 1
Waning Gibbous
Mar 4
Last Quarter
Mar 11
New
Mar 19
First Quarter
Mar 27
Full

Hourly Weather History & Observations

Time (CST) Temp. Windchill Dew Point Humidity Pressure Visibility Wind Dir Wind Speed Gust Speed Precip Events Conditions
12:14 AM 12.2 °F -1.0 °F 6.8 °F 79% 30.36 in 10.0 mi ENE 10.4 mph - N/A   Clear
12:34 AM 12.2 °F -0.2 °F 6.8 °F 79% 30.36 in 10.0 mi NE 9.2 mph - N/A   Clear
12:53 AM 12.2 °F -0.2 °F 5.0 °F 73% 30.36 in 10.0 mi NE 9.2 mph - N/A   Clear
1:14 AM 10.4 °F -0.4 °F 5.0 °F 79% 30.37 in 10.0 mi NE 6.9 mph - N/A   Clear
1:34 AM 12.2 °F 0.7 °F 5.0 °F 73% 30.37 in 10.0 mi NE 8.1 mph - N/A   Clear
1:53 AM 12.2 °F 0.7 °F 5.0 °F 73% 30.38 in 10.0 mi NE 8.1 mph - N/A   Clear
2:14 AM 12.2 °F 0.7 °F 5.0 °F 73% 30.38 in 10.0 mi NE 8.1 mph - N/A   Clear
2:34 AM 12.2 °F -0.2 °F 5.0 °F 73% 30.38 in 10.0 mi NE 9.2 mph - N/A   Clear
2:53 AM 12.2 °F 0.7 °F 5.0 °F 73% 30.38 in 10.0 mi NE 8.1 mph - N/A   Clear
3:14 AM 10.4 °F -2.4 °F 3.2 °F 73% 30.38 in 10.0 mi NE 9.2 mph - N/A   Clear
3:34 AM 10.4 °F -3.3 °F 3.2 °F 73% 30.38 in 10.0 mi NE 10.4 mph - N/A   Scattered Clouds
4:14 AM 10.4 °F -3.3 °F 3.2 °F 73% 30.38 in 10.0 mi ENE 10.4 mph - N/A   Scattered Clouds
4:34 AM 10.4 °F -2.4 °F 3.2 °F 73% 30.39 in 10.0 mi NE 9.2 mph - N/A   Scattered Clouds
4:54 AM 6.8 °F -6.9 °F 1.4 °F 79% 30.39 in 10.0 mi NE 9.2 mph - N/A   Scattered Clouds
5:14 AM 6.8 °F -5.9 °F -0.4 °F 72% 30.40 in 10.0 mi NE 8.1 mph - N/A   Clear
5:34 AM 5.0 °F -5.6 °F -0.4 °F 78% 30.40 in 10.0 mi NE 5.8 mph - N/A   Mostly Cloudy
6:14 AM 3.2 °F -9.1 °F -0.4 °F 85% 30.42 in 10.0 mi NE 6.9 mph - N/A   Mostly Cloudy
6:34 AM 3.2 °F -10.3 °F -2.2 °F 78% 30.42 in 10.0 mi ENE 8.1 mph - N/A   Scattered Clouds
6:54 AM 5.0 °F -8.1 °F -0.4 °F 78% 30.42 in 10.0 mi ENE 8.1 mph - N/A   Clear
7:14 AM 3.2 °F -9.1 °F -2.2 °F 78% 30.42 in 10.0 mi NE 6.9 mph - N/A   Clear
7:34 AM 3.2 °F -9.1 °F -2.2 °F 78% 30.42 in 10.0 mi NE 6.9 mph - N/A   Clear
7:54 AM 3.2 °F -10.3 °F -2.2 °F 78% 30.42 in 10.0 mi ENE 8.1 mph - N/A   Clear
8:14 AM 3.2 °F -10.3 °F -2.2 °F 78% 30.43 in 10.0 mi ENE 8.1 mph - N/A   Clear
8:34 AM 3.2 °F -11.3 °F -2.2 °F 78% 30.43 in 10.0 mi ENE 9.2 mph - N/A   Clear
8:54 AM 5.0 °F -6.9 °F -2.2 °F 72% 30.43 in 10.0 mi ENE 6.9 mph - N/A   Clear
9:14 AM 6.8 °F -4.8 °F -2.2 °F 67% 30.43 in 10.0 mi NE 6.9 mph - N/A   Clear
9:34 AM 6.8 °F -5.9 °F -0.4 °F 72% 30.44 in 10.0 mi ENE 8.1 mph - N/A   Clear
9:54 AM 8.6 °F -3.7 °F -0.4 °F 67% 30.44 in 10.0 mi NE 8.1 mph - N/A   Clear
10:14 AM 8.6 °F -3.7 °F -0.4 °F 67% 30.44 in 10.0 mi NE 8.1 mph - N/A   Clear
10:34 AM 8.6 °F -4.7 °F 1.4 °F 73% 30.44 in 10.0 mi NE 9.2 mph - N/A   Clear
10:54 AM 10.4 °F 0.8 °F 1.4 °F 67% 30.45 in 10.0 mi NE 5.8 mph - N/A   Clear
11:14 AM 12.2 °F 1.7 °F 3.2 °F 67% 30.45 in 10.0 mi NE 6.9 mph - N/A   Clear
11:34 AM 12.2 °F -0.2 °F 3.2 °F 67% 30.45 in 10.0 mi NE 9.2 mph - N/A   Clear
11:54 AM 12.2 °F -0.2 °F 3.2 °F 67% 30.45 in 10.0 mi NE 9.2 mph - N/A   Clear
12:13 PM 12.2 °F 0.7 °F 3.2 °F 67% 30.44 in 10.0 mi NE 8.1 mph - N/A   Clear
12:34 PM 14.0 °F 2.0 °F 3.2 °F 62% 30.44 in 10.0 mi NE 9.2 mph - N/A   Clear
12:54 PM 15.8 °F 5.1 °F 5.0 °F 62% 30.44 in 10.0 mi NE 8.1 mph - N/A   Clear
1:13 PM 15.8 °F 3.4 °F 5.0 °F 62% 30.43 in 10.0 mi NE 10.4 mph - N/A   Clear
1:34 PM 15.8 °F 4.2 °F 5.0 °F 62% 30.43 in 10.0 mi NE 9.2 mph - N/A   Clear
1:54 PM 15.8 °F 5.1 °F 5.0 °F 62% 30.42 in 10.0 mi NE 8.1 mph - N/A   Clear
2:14 PM 17.6 °F 5.7 °F 5.0 °F 58% 30.41 in 10.0 mi NE 10.4 mph - N/A   Clear
2:34 PM 17.6 °F 6.4 °F 5.0 °F 58% 30.40 in 10.0 mi NE 9.2 mph - N/A   Clear
3:14 PM 17.6 °F 6.4 °F 6.8 °F 63% 30.40 in 10.0 mi NE 9.2 mph - N/A   Clear
3:34 PM 17.6 °F 6.4 °F 6.8 °F 63% 30.41 in 10.0 mi NE 9.2 mph - N/A   Clear
3:54 PM 19.4 °F 9.5 °F 5.0 °F 54% 30.40 in 10.0 mi NE 8.1 mph - N/A   Clear
4:14 PM 17.6 °F 5.7 °F 5.0 °F 58% 30.40 in 10.0 mi NE 10.4 mph - N/A   Clear
4:34 PM 17.6 °F 6.4 °F 3.2 °F 53% 30.40 in 10.0 mi NE 9.2 mph - N/A   Clear
5:14 PM 17.6 °F 8.2 °F 1.4 °F 49% 30.41 in 10.0 mi NNE 6.9 mph - N/A   Clear
5:34 PM 17.6 °F 8.2 °F 1.4 °F 49% 30.41 in 10.0 mi NE 6.9 mph - N/A   Clear
5:54 PM 15.8 °F 8.6 °F 1.4 °F 53% 30.42 in 10.0 mi NNE 4.6 mph - N/A   Clear
6:14 PM 15.8 °F - 1.4 °F 53% 30.41 in 10.0 mi Calm Calm - N/A   Clear
6:34 PM 14.0 °F 3.9 °F -0.4 °F 53% 30.40 in 10.0 mi ENE 6.9 mph - N/A   Clear
6:54 PM 12.2 °F 4.3 °F -2.2 °F 53% 30.40 in 10.0 mi NE 4.6 mph - N/A   Clear
7:14 PM 10.4 °F 2.2 °F -2.2 °F 57% 30.40 in 10.0 mi ENE 4.6 mph - N/A   Clear
7:34 PM 10.4 °F -0.4 °F -0.4 °F 62% 30.40 in 10.0 mi ENE 6.9 mph - N/A   Clear
7:54 PM 10.4 °F -0.4 °F -0.4 °F 62% 30.39 in 10.0 mi ENE 6.9 mph - N/A   Clear
8:14 PM 6.8 °F - -2.2 °F 67% 30.39 in 10.0 mi Calm Calm - N/A   Clear
8:34 PM 6.8 °F - -2.2 °F 67% 30.39 in 10.0 mi Calm Calm - N/A   Clear
8:54 PM 6.8 °F - -2.2 °F 67% 30.38 in 10.0 mi Calm Calm - N/A   Clear
9:13 PM 5.0 °F - -2.2 °F 72% 30.38 in 10.0 mi Calm Calm - N/A   Clear
9:34 PM 1.4 °F - -5.8 °F 72% 30.38 in 10.0 mi Calm Calm - N/A   Clear
9:54 PM 1.4 °F - -7.6 °F 66% 30.37 in 10.0 mi Calm Calm - N/A   Clear
10:13 PM -0.4 °F - -7.6 °F 72% 30.36 in 10.0 mi Calm Calm - N/A   Clear
10:34 PM -2.2 °F - -9.4 °F 71% 30.35 in 10.0 mi Calm Calm - N/A   Clear
10:54 PM -0.4 °F - -5.8 °F 78% 30.35 in 10.0 mi Calm Calm - N/A   Clear
11:13 PM -0.4 °F -8.3 °F -7.6 °F 72% 30.34 in 10.0 mi SE 3.5 mph - N/A   Clear
11:34 PM -0.4 °F - -7.6 °F 72% 30.34 in 10.0 mi Calm Calm - N/A   Clear
11:54 PM -2.2 °F - -7.6 °F 78% 30.33 in 10.0 mi Calm Calm - N/A   Clear